{"data":{"norad_id":58473,"intl_designator":"2023-186A","name":"STARLINK-30947","alt_names":[],"object_type":"PAYLOAD","status":"ACTIVE","operator":null,"country":"US","launch_date":"2023-12-03","launch_site_code":"AFETR","launch_vehicle":null,"mission":null,"orbit_class":"UNKNOWN","rcs_meters":null,"size_class":null,"mass_kg":null,"dimensions":null,"purposes":["comms"],"wikipedia_slug":null,"has_3d_model":false,"image_url":null,"decayed_at":null,"tle_current":{"epoch":"2026-09-20T15:58:34.466880Z","epoch_age_seconds":132688,"freshness":"FRESH","line1":"1 58473U 23186A   26263.66567670  .00000601  00000+0  31387-4 0  9991","line2":"2 58473  43.0051  46.0762 0001717 272.6391  87.4264 15.27574840155671","mean_motion":15.2757484,"eccentricity":0.0001717,"inclination_deg":43.0051,"raan_deg":46.0762,"arg_perigee_deg":272.6391,"mean_anomaly_deg":87.4264,"bstar":3.1387e-5,"rev_number":15567,"period_min":94.267067137607,"perigee_km":481.88647867383,"apogee_km":484.24261528506,"semimajor_km":6861.2015469794,"source":"CELESTRAK","updated_at":"2026-09-21T09:00:33.880135Z"}}}